Weather History for KUNU - June, 2014

Change the Weather History Date:

Saturday, June 7, 2014

  Actual Average Record
Temperature  
Mean Temperature 68 °F -  
Max Temperature 79 °F 70 °F 95 °F (2011)
Min Temperature 57 °F 54 °F 43 °F (1977)
Cooling Degree Days 3    
Growing Degree Days 18 (Base 50)    
Moisture  
Dew Point 50 °F    
Average Humidity 55    
Maximum Humidity 90    
Minimum Humidity 32    
Precipitation  
Precipitation 0.06 in - - ()
Sea Level Pressure  
Sea Level Pressure 29.96 in    
Wind  
Wind Speed 4 mph (SSE)    
Max Wind Speed 15 mph    
Max Gust Speed 25 mph    
Visibility 10 miles    
Events Rain , Thunderstorm    
Averages and records for this station are not official NWS values.
T = Trace of Precipitation, MM = Missing Value Source: NWS Daily Summary

Daily Weather History Graph

Daily Weather History Graph

Search for Another Location

Airport or City:

Trip Planner

Search our weather history database for the weather conditions in past years. The results will help you decide how hot, cold, wet, or windy it might be!

Date:

Astronomy

Jun. 07, 2014 Rise Set
Actual Time 5:14 AM CDT 8:33 PM CDT
Civil Twilight 4:39 AM CDT 9:08 PM CDT
Nautical Twilight 3:53 AM CDT 9:54 PM CDT
Astronomical Twilight 2:57 AM CDT 10:51 PM CDT
Moon 2:41 PM CDT (6/7) 1:46 AM CDT (6/7)
Length of Visible Light 16h 29m
Length of Day
15h 18m
Waxing Gibbous, 68% of the Moon is Illuminated
Jun 7
Waxing Gibbous
Jun 12
Full
Jun 19
Last Quarter
Jun 27
New
Jul 5
First Quarter

Hourly Weather History & Observations

Time (CDT) Temp. Dew Point Humidity Pressure Visibility Wind Dir Wind Speed Gust Speed Precip Events Conditions
12:15 AM 62.1 °F 47.5 °F 59% 30.03 in 10.0 mi Calm Calm - N/A   Clear
12:35 AM 62.1 °F 46.4 °F 56% 30.02 in 10.0 mi ESE 3.5 mph - N/A   Clear
12:55 AM 60.8 °F 46.2 °F 59% 30.01 in 10.0 mi East 3.5 mph - N/A   Mostly Cloudy
1:15 AM 61.7 °F 45.0 °F 54% 30.00 in 10.0 mi SE 3.5 mph - N/A   Mostly Cloudy
1:35 AM 60.8 °F 45.9 °F 58% 30.00 in 10.0 mi SE 3.5 mph - N/A   Scattered Clouds
1:55 AM 61.3 °F 44.2 °F 53% 30.00 in 10.0 mi SE 3.5 mph - N/A   Clear
2:15 AM 60.3 °F 46.4 °F 60% 29.99 in 10.0 mi ESE 3.5 mph - N/A   Clear
2:35 AM 60.4 °F 45.5 °F 58% 29.98 in 10.0 mi Calm Calm - N/A   Clear
2:55 AM 59.9 °F 45.5 °F 59% 30.00 in 10.0 mi SSE 3.5 mph - N/A   Clear
3:15 AM 60.8 °F 44.1 °F 54% 30.01 in 10.0 mi Calm Calm - N/A   Scattered Clouds
3:35 AM 60.3 °F 44.2 °F 55% 30.01 in 10.0 mi Calm Calm - N/A   Clear
3:55 AM 59.0 °F 45.0 °F 60% 30.01 in 10.0 mi SSE 4.6 mph - N/A   Clear
4:15 AM 58.6 °F 45.0 °F 60% 30.01 in 10.0 mi SSE 3.5 mph - N/A   Clear
4:35 AM 57.6 °F 44.8 °F 62% 30.02 in 10.0 mi ESE 3.5 mph - N/A   Clear
4:55 AM 57.4 °F 45.5 °F 65% 30.02 in 10.0 mi ESE 4.6 mph - N/A   Clear
5:15 AM 57.6 °F 45.0 °F 63% 30.02 in 10.0 mi ESE 4.6 mph - N/A   Clear
5:35 AM 58.1 °F 43.2 °F 58% 30.02 in 10.0 mi East 4.6 mph - N/A   Clear
5:55 AM 59.2 °F 42.8 °F 55% 30.02 in 10.0 mi ESE 5.8 mph - N/A   Clear
6:15 AM 59.9 °F 43.7 °F 55% 30.02 in 10.0 mi ESE 5.8 mph - N/A   Clear
6:55 AM 62.2 °F 45.9 °F 55% 30.01 in 10.0 mi ESE 3.5 mph - N/A   Clear
7:15 AM 63.7 °F 48.2 °F 57% 30.01 in 10.0 mi Calm Calm - N/A   Clear
7:35 AM 66.0 °F 42.6 °F 43% 30.01 in 10.0 mi SE 4.6 mph - N/A   Clear
7:55 AM 66.7 °F 44.6 °F 45% 30.00 in 10.0 mi SE 4.6 mph - N/A   Clear
8:15 AM 68.0 °F 44.8 °F 43% 29.98 in 10.0 mi SE 5.8 mph - N/A   Clear
8:35 AM 69.4 °F 45.5 °F 42% 29.99 in 10.0 mi SSE 4.6 mph - N/A   Clear
8:55 AM 70.9 °F 46.2 °F 41% 29.99 in 10.0 mi South 5.8 mph - N/A   Clear
9:15 AM 72.3 °F 46.8 °F 40% 29.98 in 10.0 mi South 5.8 mph - N/A   Clear
9:35 AM 73.4 °F 48.0 °F 41% 29.98 in 10.0 mi South 5.8 mph - N/A   Clear
9:55 AM 74.5 °F 50.0 °F 42% 29.98 in 10.0 mi South 5.8 mph - N/A   Clear
10:15 AM 74.8 °F 50.0 °F 42% 29.99 in 10.0 mi South 6.9 mph - N/A   Clear
10:35 AM 75.6 °F 47.8 °F 37% 29.98 in 10.0 mi SSW 4.6 mph - N/A   Clear
10:55 AM 76.5 °F 50.0 °F 39% 29.98 in 10.0 mi South 5.8 mph - N/A   Clear
11:15 AM 77.4 °F 49.6 °F 38% 29.98 in 10.0 mi South 8.1 mph - N/A   Clear
11:35 AM 77.9 °F 50.9 °F 39% 29.97 in 10.0 mi SSW 6.9 mph - N/A   Clear
12:15 PM 77.5 °F 50.5 °F 39% 29.95 in 10.0 mi SW 5.8 mph - N/A   Clear
12:35 PM 78.1 °F 50.5 °F 38% 29.95 in 10.0 mi SW 8.1 mph - N/A   Clear
12:55 PM 78.1 °F 48.4 °F 35% 29.94 in 10.0 mi South 5.8 mph - N/A   Clear
1:15 PM 78.6 °F 50.2 °F 37% 29.93 in 10.0 mi South 4.6 mph - N/A   Scattered Clouds
1:35 PM 78.8 °F 51.3 °F 38% 29.92 in 10.0 mi Calm Calm - N/A   Scattered Clouds
1:55 PM 78.8 °F 47.5 °F 33% 29.92 in 10.0 mi SSE 8.1 mph - N/A   Clear
2:15 PM 79.7 °F 48.2 °F 33% 29.91 in 10.0 mi South 5.8 mph - N/A   Scattered Clouds
2:35 PM 79.0 °F 49.3 °F 35% 29.90 in 10.0 mi SSW 4.6 mph - N/A   Scattered Clouds
2:55 PM 78.6 °F 46.4 °F 32% 29.89 in 10.0 mi SSE 4.6 mph - N/A   Clear
3:15 PM 78.3 °F 47.5 °F 34% 29.90 in 10.0 mi South 6.9 mph - N/A   Clear
3:35 PM 77.5 °F 50.9 °F 39% 29.90 in 10.0 mi South 6.9 mph - N/A   Clear
3:55 PM 77.4 °F 52.0 °F 41% 29.90 in 10.0 mi South 5.8 mph - N/A   Clear
4:15 PM 77.9 °F 52.7 °F 41% 29.90 in 10.0 mi South 5.8 mph - N/A   Clear
4:35 PM 77.4 °F 51.3 °F 40% 29.90 in 10.0 mi South 3.5 mph - N/A   Scattered Clouds
4:55 PM 77.2 °F 51.8 °F 41% 29.90 in 10.0 mi SE 5.8 mph - N/A   Scattered Clouds
5:15 PM 77.0 °F 52.9 °F 43% 29.89 in 10.0 mi ESE 9.2 mph - N/A   Scattered Clouds
5:35 PM 74.7 °F 51.8 °F 45% 29.89 in 10.0 mi ESE 8.1 mph - N/A   Overcast
5:55 PM 74.3 °F 50.5 °F 43% 29.88 in 10.0 mi SE 9.2 mph - N/A   Overcast
6:15 PM 71.6 °F 54.1 °F 54% 29.90 in 10.0 mi NNW 9.2 mph 24.2 mph N/A Thunderstorm Thunderstorm
6:35 PM 67.3 °F 56.8 °F 69% 29.92 in 10.0 mi NW 15.0 mph 25.3 mph N/A Thunderstorm Overcast
6:55 PM 66.2 °F 56.3 °F 70% 29.93 in 10.0 mi NNW 11.5 mph 21.9 mph N/A   Overcast
7:15 PM 65.8 °F 55.8 °F 70% 29.93 in 10.0 mi NNW 9.2 mph 25.3 mph N/A Thunderstorm Overcast
7:35 PM 64.9 °F 57.2 °F 76% 29.93 in 10.0 mi North 10.4 mph - N/A   Overcast
7:55 PM 64.4 °F 57.6 °F 78% 29.94 in 10.0 mi NW 8.1 mph - N/A   Overcast
8:15 PM 63.7 °F 57.0 °F 79% 29.94 in 10.0 mi NNW 12.7 mph 16.1 mph N/A   Drizzle
8:35 PM 62.8 °F 57.2 °F 82% 29.94 in 10.0 mi NNW 10.4 mph - N/A   Drizzle
8:55 PM 62.1 °F 56.8 °F 83% 29.95 in 10.0 mi NNW 6.9 mph - N/A Rain Light Rain
9:15 PM 61.7 °F 56.8 °F 84% 29.94 in 5.0 mi NNW 12.7 mph - 0.03 in Rain Rain
9:35 PM 61.3 °F 57.2 °F 86% 29.94 in 10.0 mi North 6.9 mph - 0.04 in Rain Light Rain
9:55 PM 61.3 °F 57.2 °F 86% 29.95 in 10.0 mi NE 5.8 mph - 0.04 in Rain Light Rain
10:15 PM 61.3 °F 57.6 °F 87% 29.95 in 10.0 mi NNE 3.5 mph - N/A   Drizzle
10:35 PM 61.7 °F 57.4 °F 86% 29.95 in 10.0 mi Calm Calm - 0.01 in   Drizzle
10:55 PM 61.7 °F 57.6 °F 86% 29.94 in 10.0 mi Calm Calm - 0.01 in   Drizzle
11:15 PM 61.0 °F 58.1 °F 90% 29.93 in 10.0 mi Calm Calm - N/A Rain Rain
11:35 PM 61.3 °F 58.3 °F 90% 29.93 in 10.0 mi NNW 3.5 mph - 0.01 in   Drizzle
11:55 PM 61.7 °F 58.5 °F 89% 29.93 in 10.0 mi NNW 6.9 mph - 0.01 in   Overcast